Essex, Connecticut, United States (06426)
Lat: 41.35N, Lon: 72.39W
Wx Zone: CTZ011
Local Info
Past Weather Observations for Today

NOTE: This archive is for the closest National Weather Service station to Essex. Information may differ from the station used for current weather conditions.

Click here for Long-term Archive

Time Weather Temperature Dewpoint Humidity Pressure Winds Precip Visibility
22:24
Overcast
Light Rain
52°F / 11°C 50°F / 10°C 94% 29.68 in
(1005 mb)
NNE 23 mph
(NNE 37 kph)
0.00 in
(0.00 mm)
7SM
21:56
Overcast
Thunder Storms
52°F / 11°C 50°F / 10°C 94% 29.68 in
(1005 mb)
NNE 21.9 mph
(NNE 35 kph)
0.08 in
(2.03 mm)
9SM
21:53
Overcast
Thunder Storms
52°F / 11°C 50°F / 10°C 94% 29.68 in
(1005 mb)
NNE 23 mph
(NNE 37 kph)
0.08 in
(2.03 mm)
9SM
21:44
Overcast
Thunder Storms
52°F / 11°C 50°F / 10°C 94% 29.68 in
(1005 mb)
NNE 21.9 mph
(NNE 35 kph)
0.08 in
(2.03 mm)
10SM
21:27
Overcast
Thunder Storms
52°F / 11°C 50°F / 10°C 94% 29.71 in
(1006 mb)
NNE 20.7 mph
(NNE 33 kph)
0.08 in
(2.03 mm)
7SM
21:20
Overcast
Light Rain
52°F / 11°C 50°F / 10°C 94% 29.71 in
(1006 mb)
NNE 19.6 mph
(NNE 32 kph)
0.07 in
(1.78 mm)
8SM
21:03
Overcast
Thunder Storms
54°F / 12°C 50°F / 10°C 88% 29.68 in
(1005 mb)
NE 24.2 mph
(NE 39 kph)
0.05 in
(1.27 mm)
5SM
20:56
Overcast
Thunder Storms
54°F / 12°C 50°F / 10°C 88% 29.71 in
(1006 mb)
NE 26.5 mph
(NE 43 kph)
0.07 in
(1.78 mm)
10SM
20:49
Overcast
Light Rain
54°F / 12°C 50°F / 10°C 88% 29.68 in
(1005 mb)
NE 25.3 mph
(NE 41 kph)
0.07 in
(1.78 mm)
10SM
20:33
Overcast
Light Rain
52°F / 11°C 52°F / 11°C 100% 29.68 in
(1005 mb)
ENE 16.1 mph
(ENE 26 kph)
0.07 in
(1.78 mm)
8SM
20:12
Overcast
Rain
52°F / 11°C 48°F / 9°C 88% 29.65 in
(1004 mb)
NNE 27.6 mph
(NNE 44 kph)
0.03 in
(0.76 mm)
5SM
19:56
Overcast
Light Rain
50°F / 10°C 48°F / 9°C 94% 29.62 in
(1003 mb)
N 25.3 mph
(N 41 kph)
0.05 in
(1.27 mm)
6SM
19:34
Overcast
Light Rain
52°F / 11°C 48°F / 9°C 88% 29.62 in
(1003 mb)
N 25.3 mph
(N 41 kph)
0.02 in
(0.51 mm)
9SM
19:17
Overcast
Thunder Storms
50°F / 10°C 48°F / 9°C 94% 29.65 in
(1004 mb)
N 23 mph
(N 37 kph)
0.02 in
(0.51 mm)
7SM
19:03
Overcast
Light Rain
50°F / 10°C 48°F / 9°C 94% 29.68 in
(1005 mb)
N 25.3 mph
(N 41 kph)
0.00 in
(0.00 mm)
8SM
18:56
Overcast
Light Rain
50°F / 10°C 48°F / 9°C 94% 29.68 in
(1005 mb)
N 24.2 mph
(N 39 kph)
0.09 in
(2.29 mm)
7SM
17:56
Overcast
Rain
50°F / 10°C 48°F / 9°C 94% 29.74 in
(1007 mb)
NNE 21.9 mph
(NNE 35 kph)
0.04 in
(1.02 mm)
4SM
16:56
Overcast
Light Rain
52°F / 11°C 48°F / 9°C 88% 29.74 in
(1007 mb)
NNE 24.2 mph
(NNE 39 kph)
0.02 in
(0.51 mm)
10SM
15:56
Overcast
Light Rain
52°F / 11°C 48°F / 9°C 88% 29.77 in
(1008 mb)
NNE 24.2 mph
(NNE 39 kph)
0.00 in
(0.00 mm)
4SM
14:56
Overcast
Light Rain
52°F / 11°C 50°F / 10°C 94% 29.8 in
(1009 mb)
NNE 20.7 mph
(NNE 33 kph)
0.01 in
(0.25 mm)
6SM
13:56
Overcast
54°F / 12°C 50°F / 10°C 88% 29.83 in
(1010 mb)
NE 21.9 mph
(NE 35 kph)
0.00 in
(0.00 mm)
10SM
12:56
Overcast
54°F / 12°C 50°F / 10°C 88% 29.86 in
(1011 mb)
NNE 21.9 mph
(NNE 35 kph)
0.00 in
(0.00 mm)
10SM
11:56
Overcast
Light Rain
55°F / 13°C 52°F / 11°C 88% 29.89 in
(1012 mb)
NE 13.8 mph
(NE 22 kph)
0.00 in
(0.00 mm)
10SM
10:56
Overcast
Light Rain
55°F / 13°C 52°F / 11°C 88% 29.92 in
(1013 mb)
NE 23 mph
(NE 37 kph)
0.00 in
(0.00 mm)
7SM
09:56
Overcast
57°F / 14°C 54°F / 12°C 88% 29.92 in
(1013 mb)
NE 16.1 mph
(NE 26 kph)
- 10SM
08:56
Overcast
55°F / 13°C 52°F / 11°C 88% 29.92 in
(1013 mb)
NNE 12.7 mph
(NNE 20 kph)
- 10SM
07:56
Mostly Cloudy
55°F / 13°C 52°F / 11°C 88% 29.95 in
(1014 mb)
NNE 12.7 mph
(NNE 20 kph)
- 10SM
06:56
Overcast
54°F / 12°C 52°F / 11°C 94% 29.92 in
(1013 mb)
N 13.8 mph
(N 22 kph)
- 10SM
05:56
Mostly Cloudy
54°F / 12°C 50°F / 10°C 88% 29.92 in
(1013 mb)
NNE 16.1 mph
(NNE 26 kph)
- 10SM
04:56
Overcast
54°F / 12°C 52°F / 11°C 94% 29.92 in
(1013 mb)
NE 11.5 mph
(NE 19 kph)
- 10SM
03:56
Overcast
55°F / 13°C 52°F / 11°C 88% 29.92 in
(1013 mb)
NNE 11.5 mph
(NNE 19 kph)
- 10SM
02:56
Overcast
55°F / 13°C 54°F / 12°C 94% 29.92 in
(1013 mb)
NNE 11.5 mph
(NNE 19 kph)
- 10SM
01:56
Overcast
55°F / 13°C 54°F / 12°C 94% 29.92 in
(1013 mb)
NE 11.5 mph
(NE 19 kph)
- 10SM
00:56
Mostly Cloudy
55°F / 13°C 54°F / 12°C 94% 29.92 in
(1013 mb)
NE 18.4 mph
(NE 30 kph)
- 10SM
00:47
Mostly Cloudy
55°F / 13°C 54°F / 12°C 94% 29.92 in
(1013 mb)
NE 15 mph
(NE 24 kph)
- 10SM
Time Weather Temperature Dewpoint Humidity Pressure Winds Precip Visibility


Weather for websites

WeatherForYou.com, LLC is not responsible for any damages or problems caused by this service. Current weather conditions are obtained from the closest station including government and personal stations which may have varying degrees of accuracy. Weather forecasts are derived from the NOAA NDFD. Like all things, this site belongs to Jesus Christ... He just trusts me to maintain it. If you have any questions or comments email webmaster@weatherforyou.com

Copyright © 2014, WeatherForYou.com LLC. All rights reserved.